Skip Page Navigation
NASA JPL Caltech
NASA Logo - Jet Propulsion Laboratory + View the NASA Portal
+ Center for Near-Earth Object Studies
JPL Home Earth Solar System Stars & Galaxies Technology
JPL Solar System Dynamics
BODIES ORBITS EPHEMERIDES TOOLS PHYSICAL DATA DISCOVERY FAQ SITE MAP
IMPORTANT: The SSD Announcement email list is now available. Major changes are coming in the near future, including possible hostname and/or URL changes. To be notified of such changes, subscribe to this email list.

Please visit this page for more details.


JPL Small-Body Database Browser
Search: [ help ]  
65022 (2002 AQ104)
Classification: Main-belt Asteroid          SPK-ID: 2065022
Ephemeris | Orbit Diagram | Orbital Elements | Mission Design | Physical Parameters | Discovery Circumstances | Close-Approach Data ]

[ show orbit diagram ]
Orbital Elements at Epoch 2459000.5 (2020-May-31.0) TDB
Reference: JPL 18 (heliocentric ecliptic J2000)
 Element Value Uncertainty (1-sigma)   Units 
e .1371616095249624 4.8199e-08  
a 3.095319490301811 2.304e-08 au
q 2.670760487018029 1.5113e-07 au
i .7500801927923867 4.9042e-06 deg
node 61.30549568428486 0.00043263 deg
peri 153.8406953955586 0.00043305 deg
M 50.04940090743413 1.8335e-05 deg
tp 2458723.963136366723
(2019-Aug-28.46313637)
0.0001012 TDB
period 1989.100151110752
5.45
2.2209e-05
6.08e-08
d
yr
n .1809863619983986 2.0208e-09 deg/d
Q 3.519878493585594 2.62e-08 au
  Orbit Determination Parameters
   # obs. used (total)      678  
   data-arc span      8970 days (24.56 yr)  
   first obs. used      1994-10-09  
   last obs. used      2019-05-01  
   planetary ephem.      DE431  
   SB-pert. ephem.      SB431-N16  
   condition code      0  
   norm. resid. RMS      .58278  
   source      ORB  
   producer      Otto Matic  
   solution date      2019-Jul-13 04:03:50  

Additional Information
 Earth MOID = 1.66408 au 
 Jupiter MOID = 1.44833 au 
 T_jup = 3.209 
[ show covariance matrix ]

Ephemeris | Orbit Diagram | Orbital Elements | Mission Design | Physical Parameters | Discovery Circumstances | Close-Approach Data ]

Physical Parameter Table
Parameter Symbol Value Units Sigma Reference Notes
absolute magnitude H 14.9   n/a MPO259749  
diameter diameter 4.853 km 1.020 urn:nasa:pds:neowise_diameters_albedos::2.0[mainbelt] (http://adsabs.harvard.edu/abs/2011ApJ...741...68M)  
geometric albedo albedo 0.062   0.048 urn:nasa:pds:neowise_diameters_albedos::2.0[mainbelt] (http://adsabs.harvard.edu/abs/2011ApJ...741...68M)  

65022 (2002 AQ104)          Discovered 2002-Jan-09 by LINEAR at Socorro
Reference: 20030614/Numbers.arcLast Updated: 2004-04-19

[ show close-approach data ]
Ephemeris | Orbit Diagram | Orbital Elements | Mission Design | Physical Parameters | Discovery Circumstances | Close-Approach Data ]
ABOUT SSD CREDITS/AWARDS PRIVACY/COPYRIGHT GLOSSARY LINKS
FirstGov 2020-Apr-03 04:56 UT
(server date/time)  
NASA Home Page
Site Manager:   Ryan S. Park
Webmaster  Alan B. Chamberlin